ZIYUAN 1-02C (ZY 1-02C)

Last updated on Thu Oct 30 2025 00:02:31 GMT+0000 (Coordinated Universal Time)

1 38038U 11079A 25302.51069308 .00000680 00000+0 23929-3 0 9995 2 38038 98.4387 9.3294 0005287 278.6855 205.4667 14.37936189726054
UTC large
Height (km)
Speed (km/s)
/
Latitude / Longitude
Inclination (degrees)
Orbital Period (minutes)
Azimuth
Elevation
Range (km)
Doppler Factor

Next 0 passes for location: London (51.5072 / 0.1276)

Sorry there are no passes over London.